{"data":{"norad_id":62825,"intl_designator":"2025-018V","name":"STARLINK-32825","alt_names":[],"object_type":"PAYLOAD","status":"ACTIVE","operator":null,"country":"US","launch_date":"2025-01-24","launch_site_code":"AFWTR","launch_vehicle":null,"mission":null,"orbit_class":"UNKNOWN","rcs_meters":null,"size_class":null,"mass_kg":null,"dimensions":null,"purposes":["comms"],"wikipedia_slug":null,"has_3d_model":false,"image_url":null,"decayed_at":null,"tle_current":{"epoch":"2026-09-21T21:18:41.687136Z","epoch_age_seconds":48294,"freshness":"FRESH","line1":"1 62825U 25018V   26264.88798249  .00015429  00000+0  46678-3 0  9998","line2":"2 62825  53.1588 114.9797 0001139  96.6352 263.4780 15.34404126 93257","mean_motion":15.34404126,"eccentricity":0.0001139,"inclination_deg":53.1588,"raan_deg":114.9797,"arg_perigee_deg":96.6352,"mean_anomaly_deg":263.478,"bstar":0.00046678,"rev_number":9325,"period_min":93.84750572549,"perigee_km":461.9118065865,"apogee_km":463.47014719964,"semimajor_km":6840.8279768931,"source":"CELESTRAK","updated_at":"2026-09-22T09:00:49.670244Z"}}}